Albert Lea, MN

11:13 PM CST on February 24, 2017 (GMT -0600)
Albert Lea Municipal

Weather History for KAEL - March, 2014

Change the Weather History Date:

Sunday, March 30, 2014

  Actual Average Record
Temperature  
Mean Temperature 50 °F -  
Max Temperature 62 °F 45 °F 71 °F (1999)
Min Temperature 37 °F 29 °F 23 °F (2011)
Degree Days  
Heating Degree Days 16    
Moisture  
Dew Point 35 °F    
Average Humidity 61    
Maximum Humidity 75    
Minimum Humidity 42    
Precipitation  
Precipitation 0.00 in - - ()
Sea Level Pressure  
Sea Level Pressure 29.88 in    
Wind  
Wind Speed 14 mph (South)    
Max Wind Speed 20 mph    
Max Gust Speed 28 mph    
Visibility 9 miles    
Events      
Averages and records for this station are not official NWS values.
T = Trace of Precipitation, MM = Missing Value Source: NWS Daily Summary

Daily Weather History Graph

Daily Weather History Graph

Search for Another Location

Airport or City:

Trip Planner

Search our weather history database for the weather conditions in past years. The results will help you decide how hot, cold, wet, or windy it might be!

Date:

Astronomy

Mar. 30, 2014 Rise Set
Actual Time 6:58 AM CDT 7:37 PM CDT
Civil Twilight 6:29 AM CDT 8:06 PM CDT
Nautical Twilight 5:55 AM CDT 8:41 PM CDT
Astronomical Twilight 5:20 AM CDT 9:16 PM CDT
Moon 6:44 AM CDT (3/30) 7:52 PM CDT (3/30)
Length of Visible Light 13h 37m
Length of Day
12h 39m
Waning Crescent, 0% of the Moon is Illuminated
Mar 30
Waning Crescent
Mar 30
New
Apr 7
First Quarter
Apr 15
Full
Apr 22
Last Quarter

Hourly Weather History & Observations

Time (CDT) Temp. Windchill Dew Point Humidity Pressure Visibility Wind Dir Wind Speed Gust Speed Precip Events Conditions
12:09 AM 37.4 °F 29.3 °F 30.2 °F 75% 30.07 in 10.0 mi SSE 12.7 mph - N/A   Clear
12:30 AM 37.4 °F 28.5 °F 30.2 °F 75% 30.05 in 10.0 mi SSE 15.0 mph - N/A   Clear
12:50 AM 37.4 °F 28.9 °F 30.2 °F 75% 30.06 in 10.0 mi South 13.8 mph - N/A   Clear
1:09 AM 37.4 °F 27.8 °F 30.2 °F 75% 30.04 in 10.0 mi SSE 17.3 mph 23.0 mph N/A   Clear
1:30 AM 37.4 °F 28.5 °F 30.2 °F 75% 30.04 in 10.0 mi SSE 15.0 mph 21.9 mph N/A   Clear
1:50 AM 37.4 °F 29.8 °F 30.2 °F 75% 30.04 in 10.0 mi South 11.5 mph - N/A   Clear
2:09 AM 37.4 °F 29.8 °F 30.2 °F 75% 30.03 in 10.0 mi SSE 11.5 mph 19.6 mph N/A   Clear
2:30 AM 37.4 °F 29.3 °F 30.2 °F 75% 30.02 in 10.0 mi SSE 12.7 mph - N/A   Clear
2:50 AM 37.4 °F 28.9 °F 30.2 °F 75% 30.01 in 10.0 mi SSE 13.8 mph - N/A   Clear
3:09 AM 37.4 °F 29.8 °F 30.2 °F 75% 30.00 in 10.0 mi SSE 11.5 mph - N/A   Clear
3:30 AM 37.4 °F 28.5 °F 30.2 °F 75% 29.99 in 10.0 mi SSE 15.0 mph 20.7 mph N/A   Clear
3:49 AM 37.4 °F 28.9 °F 30.2 °F 75% 29.98 in 10.0 mi South 13.8 mph 19.6 mph N/A   Clear
4:10 AM 37.4 °F 28.9 °F 30.2 °F 75% 29.97 in 10.0 mi South 13.8 mph 21.9 mph N/A   Clear
4:29 AM 37.4 °F 28.2 °F 30.2 °F 75% 29.96 in 10.0 mi SSE 16.1 mph 23.0 mph N/A   Clear
4:50 AM 37.4 °F 27.2 °F 30.2 °F 75% 29.95 in 10.0 mi SSE 19.6 mph 25.3 mph N/A   Clear
5:10 AM 37.4 °F 28.2 °F 30.2 °F 75% 29.95 in 10.0 mi SSE 16.1 mph - N/A   Clear
5:29 AM 39.2 °F 30.5 °F 30.2 °F 70% 29.95 in 10.0 mi SSE 16.1 mph 20.7 mph N/A   Clear
5:50 AM 39.2 °F 30.2 °F 30.2 °F 70% 29.94 in 10.0 mi South 17.3 mph 25.3 mph N/A   Clear
6:10 AM 39.2 °F 29.6 °F 30.2 °F 70% 29.94 in 10.0 mi South 19.6 mph 27.6 mph N/A   Clear
6:29 AM 39.2 °F 30.8 °F 30.2 °F 70% 29.94 in 10.0 mi South 15.0 mph 26.5 mph N/A   Clear
6:49 AM 39.2 °F 30.5 °F 30.2 °F 70% 29.94 in 10.0 mi South 16.1 mph 24.2 mph N/A   Clear
7:10 AM 39.2 °F 30.8 °F 30.2 °F 70% 29.93 in 10.0 mi South 15.0 mph 24.2 mph N/A   Clear
7:30 AM 39.2 °F 30.2 °F 30.2 °F 70% 29.93 in 7.0 mi South 17.3 mph 24.2 mph N/A   Clear
7:49 AM 39.2 °F 29.6 °F 30.2 °F 70% 29.92 in 7.0 mi South 19.6 mph 26.5 mph N/A   Clear
8:10 AM 39.2 °F 29.6 °F 30.2 °F 70% 29.92 in 7.0 mi South 19.6 mph 26.5 mph N/A   Clear
8:30 AM 41.0 °F 32.2 °F 32.0 °F 70% 29.92 in 10.0 mi South 18.4 mph 24.2 mph N/A   Clear
8:49 AM 41.0 °F 32.5 °F 32.0 °F 70% 29.92 in 7.0 mi South 17.3 mph 24.2 mph N/A   Clear
9:10 AM 42.8 °F 35.8 °F 32.0 °F 66% 29.92 in 10.0 mi South 13.8 mph 24.2 mph N/A   Clear
9:30 AM 42.8 °F 35.8 °F 33.8 °F 70% 29.92 in 7.0 mi South 13.8 mph 21.9 mph N/A   Clear
9:49 AM 44.6 °F 37.8 °F 33.8 °F 66% 29.92 in 7.0 mi South 15.0 mph 21.9 mph N/A   Clear
10:10 AM 46.4 °F 40.7 °F 33.8 °F 62% 29.94 in 7.0 mi South 12.7 mph 20.7 mph N/A   Clear
10:30 AM 48.2 °F - 33.8 °F 58% 29.94 in 7.0 mi South 9.2 mph 20.7 mph N/A   Clear
10:49 AM 48.2 °F - 33.8 °F 58% 29.92 in 7.0 mi South 15.0 mph 18.4 mph N/A   Clear
11:10 AM 50.0 °F - 35.6 °F 58% 29.91 in 7.0 mi South 12.7 mph 19.6 mph N/A   Clear
11:30 AM 51.8 °F - 35.6 °F 54% 29.90 in 7.0 mi South 11.5 mph 21.9 mph N/A   Clear
11:49 AM 53.6 °F - 37.4 °F 54% 29.90 in 10.0 mi SSW 12.7 mph 20.7 mph N/A   Clear
12:10 PM 55.4 °F - 37.4 °F 51% 29.89 in 7.0 mi SSW 19.6 mph 26.5 mph N/A   Clear
12:30 PM 55.4 °F - 37.4 °F 51% 29.88 in 7.0 mi SSW 19.6 mph 26.5 mph N/A   Clear
12:49 PM 55.4 °F - 39.2 °F 54% 29.87 in 7.0 mi SSW 11.5 mph 21.9 mph N/A   Clear
1:10 PM 57.2 °F - 39.2 °F 51% 29.87 in 7.0 mi SSW 13.8 mph 25.3 mph N/A   Clear
1:30 PM 59.0 °F - 41.0 °F 51% 29.86 in 7.0 mi SSW 13.8 mph 24.2 mph N/A   Clear
1:49 PM 60.8 °F - 41.0 °F 48% 29.85 in 7.0 mi SSW 9.2 mph 20.7 mph N/A   Clear
2:10 PM 60.8 °F - 42.8 °F 52% 29.84 in 10.0 mi SSW 15.0 mph 24.2 mph N/A   Clear
2:30 PM 62.6 °F - 39.2 °F 42% 29.84 in 10.0 mi SSW 15.0 mph 27.6 mph N/A   Clear
2:49 PM 60.8 °F - 39.2 °F 45% 29.83 in 10.0 mi SSW 12.7 mph 21.9 mph N/A   Clear
3:10 PM 60.8 °F - 39.2 °F 45% 29.82 in 10.0 mi SSW 15.0 mph 25.3 mph N/A   Clear
3:30 PM 62.6 °F - 39.2 °F 42% 29.82 in 10.0 mi SSW 12.7 mph 20.7 mph N/A   Clear
3:49 PM 62.6 °F - 39.2 °F 42% 29.82 in 10.0 mi South 10.4 mph 16.1 mph N/A   Clear
4:10 PM 62.6 °F - 41.0 °F 45% 29.81 in 10.0 mi South 11.5 mph 19.6 mph N/A   Clear
4:30 PM 62.6 °F - 41.0 °F 45% 29.80 in 10.0 mi South 12.7 mph 21.9 mph N/A   Clear
4:49 PM 62.6 °F - 42.8 °F 48% 29.80 in 10.0 mi SSE 10.4 mph 17.3 mph N/A   Clear
5:10 PM 62.6 °F - 42.8 °F 48% 29.79 in 10.0 mi SSE 11.5 mph 21.9 mph N/A   Clear
5:29 PM 62.6 °F - 42.8 °F 48% 29.80 in 10.0 mi South 6.9 mph - N/A   Clear
5:50 PM 62.6 °F - 41.0 °F 45% 29.79 in 10.0 mi South 10.4 mph 16.1 mph N/A   Clear
6:09 PM 62.6 °F - 41.0 °F 45% 29.79 in 10.0 mi South 10.4 mph - N/A   Clear
6:30 PM 60.8 °F - 41.0 °F 48% 29.78 in 10.0 mi SSE 11.5 mph - N/A   Clear
6:50 PM 60.8 °F - 39.2 °F 45% 29.78 in 10.0 mi SSE 10.4 mph - N/A   Clear
7:09 PM 57.2 °F - 41.0 °F 55% 29.78 in 10.0 mi SSE 10.4 mph - N/A   Clear
7:30 PM 57.2 °F - 41.0 °F 55% 29.78 in 10.0 mi South 8.1 mph - N/A   Clear
7:50 PM 55.4 °F - 41.0 °F 58% 29.78 in 10.0 mi SSE 10.4 mph - N/A   Clear
8:09 PM 55.4 °F - 41.0 °F 58% 29.78 in 10.0 mi SSE 13.8 mph - N/A   Clear
8:30 PM 55.4 °F - 39.2 °F 54% 29.78 in 10.0 mi SSE 12.7 mph 18.4 mph N/A   Clear
8:50 PM 53.6 °F - 39.2 °F 58% 29.78 in 10.0 mi SSE 12.7 mph - N/A   Clear
9:09 PM 53.6 °F - 39.2 °F 58% 29.78 in 10.0 mi SSE 13.8 mph - N/A   Clear
9:30 PM 51.8 °F - 37.4 °F 58% 29.78 in 10.0 mi SSE 13.8 mph 19.6 mph N/A   Clear
9:50 PM 51.8 °F - 37.4 °F 58% 29.78 in 10.0 mi SSE 16.1 mph - N/A   Clear
10:09 PM 51.8 °F - 37.4 °F 58% 29.77 in 10.0 mi SSE 12.7 mph - N/A   Clear
10:30 PM 50.0 °F - 37.4 °F 62% 29.77 in 10.0 mi SSE 12.7 mph - N/A   Clear
10:50 PM 50.0 °F - 35.6 °F 58% 29.77 in 10.0 mi SSE 13.8 mph - N/A   Clear
11:09 PM 50.0 °F - 35.6 °F 58% 29.77 in 10.0 mi SSE 15.0 mph 21.9 mph N/A   Clear
11:30 PM 51.8 °F - 35.6 °F 54% 29.76 in 10.0 mi SSE 13.8 mph 20.7 mph N/A   Clear
11:50 PM 50.0 °F - 33.8 °F 54% 29.76 in 10.0 mi SSE 16.1 mph 23.0 mph N/A   Clear